RASSVET-3 14

导读

RASSVET-3 14(NORAD编号68373)是俄罗斯Buro 1440公司研发的“黎明-3”(Rassvet-3)低轨互联网卫星,属于俄罗斯版“星链”项目的首批16颗量产卫星之一,于2026年3月23日由联盟-2火箭秘密发射升空。 该卫星单颗质量约370公斤,发射进入近地点290公里、远地点324公里、倾角82.3度的初始轨道,后续将完成测试并转移至目标轨道。它搭载5G NTN非地面网络通信系统,旨在构建俄罗斯自主可控的低轨卫星互联网,摆脱对国外卫星通信系统的依赖。

基本信息
目录编号:
68373
目录名称:
RASSVET-3 14
国际标识:
2026-061P
轨道中心:
EARTH
卫星名称:
RASSVET-3 14
卫星全名:
RASSVET-3 14
卫星状态:
在轨 (已飞行166 天)
发射日期:
2026-03-23 UTC
国别 :
俄罗斯(独联体) (CIS)
星等 :
--
轨道信息
数据来源 国际轨道数据
星历时间: 2026-09-05T13:15:15+0800
6小时前
查看轨道信息
半长轴: 6734.419km
偏心率: 0.0010681
轨道倾角: 82.290°
近地点辐角 172.162°
升交点赤经 283.764°
平近点角 187.981°
近地点: 349.088km
远地点: 363.476km
周期: 91.666分钟
每日圈数: 15.709147
详细信息
使用方式:
暂无
2D轨道图
3D轨道图
轨道高度分析图
轨道倾角分析图
轨道综合分析图
查看轨道综合分析图
交会数据列表
事件ID 空间交会对象 最接近时刻(TCA) 交会距离 交会风险概率(CRP) 交会风险指数(CRI) 操作
CDM_260903-040606-121206-837322
2026-09-03T
04:06:25+0000
2.686 km
极远距离
1.299524E-6 低风险 0.37
CDM_260903-053806-121206-837322
2026-09-03T
05:38:08+0000
2.785 km
极远距离
1.231993E-6 低风险 0.37
CDM_260906-020604-645806-837324
2026-09-06T
02:06:28+0000
2.762 km
极远距离
6.331026E-7 极低风险 0.31